This is the latest recevied weather packets stored in our database for station/object K9RJT. If no packets are shown the sender has not sent any weather packets the latest 10 day(s).
| Time | Temp. | Humidity | Pressure | Rain* | Wind** | Luminosity | Snow |
|---|---|---|---|---|---|---|---|
| 1777387467 | 2.22° C | 70% | 1016.9 hPa | 0 mm | - | 180 W/m² | - |
| 1777387161 | 1.67° C | 73% | 1016.6 hPa | 0 mm | - | 166 W/m² | - |
| 1777386857 | 1.11° C | 75% | 1016.7 hPa | 0 mm | - | 153 W/m² | - |
| 1777386554 | 1.11° C | 75% | 1016.5 hPa | 0 mm | - | 141 W/m² | - |
| 1777386252 | 1.11° C | 76% | 1016.7 hPa | 0 mm | - | 128 W/m² | - |
| 1777385949 | 0.56° C | 76% | 1016.7 hPa | 0 mm | - | 116 W/m² | - |
| 1777385645 | 0.56° C | 75% | 1016.9 hPa | 0 mm | - | 104 W/m² | - |
| 1777385343 | 0° C | 74% | 1016.5 hPa | 0 mm | - | 94 W/m² | - |
| 1777385038 | -0.56° C | 76% | 1016.7 hPa | 0 mm | - | 69 W/m² | - |
| 1777384736 | -1.11° C | 79% | 1016.7 hPa | 0 mm | - | 44 W/m² | - |
| 1777384435 | -1.11° C | 82% | 1016.5 hPa | 0 mm | - | 49 W/m² | - |
| 1777384132 | -1.11° C | 82% | 1016.4 hPa | 0 mm | - | 42 W/m² | - |
| 1777383828 | -1.11° C | 83% | 1016.4 hPa | 0 mm | - | 46 W/m² | - |
| 1777383524 | -1.11° C | 83% | 1016.3 hPa | 0 mm | - | 38 W/m² | - |
| 1777383221 | -1.67° C | 82% | 1016.3 hPa | 0 mm | - | 31 W/m² | - |
| 1777382918 | -1.67° C | 82% | 1016.2 hPa | 0 mm | - | 25 W/m² | - |
| 1777382613 | -1.67° C | 82% | 1016.3 hPa | 0 mm | - | 19 W/m² | - |
| 1777382309 | -2.22° C | 83% | 1016.1 hPa | 0 mm | - | 14 W/m² | - |
| 1777382006 | -2.22° C | 82% | 1016.1 hPa | 0 mm | - | 10 W/m² | - |
| 1777381706 | -2.22° C | 82% | 1016.2 hPa | 0 mm | - | 7 W/m² | - |
| 1777381402 | -2.22° C | 80% | 1015.9 hPa | 0 mm | - | 5 W/m² | - |
| 1777381098 | -2.22° C | 80% | 1016.3 hPa | 0 mm | - | 3 W/m² | - |
| 1777380795 | -2.22° C | 80% | 1015.8 hPa | 0 mm | - | 1 W/m² | - |
| 1777380492 | -2.22° C | 80% | 1015.9 hPa | 0 mm | - | 1 W/m² | - |
| 1777380189 | -2.22° C | 81% | 1016 hPa | 0 mm | - | 0 W/m² | - |
* Rain latest hour (hover to see other rain measurements)
** Current wind speed in m/s (hover to see current wind gust speed)